Keene, NH

5:24 AM EST on January 17, 2018 (GMT -0500)
Dillant-Hopkins

Weather History for KEEN - October, 2012

Change the Weather History Date:

Wednesday, October 31, 2012

  Actual Average Record
Temperature  
Mean Temperature 48 °F -  
Max Temperature 53 °F 54 °F 75 °F (1946)
Min Temperature 44 °F 29 °F 16 °F (1966)
Degree Days  
Heating Degree Days 16    
Moisture  
Dew Point 43 °F    
Average Humidity 76    
Maximum Humidity 94    
Minimum Humidity 58    
Precipitation  
Precipitation 0.02 in - - ()
Sea Level Pressure  
Sea Level Pressure 29.50 in    
Wind  
Wind Speed 4 mph (South)    
Max Wind Speed 15 mph    
Max Gust Speed 24 mph    
Visibility 10 miles    
Events      
Averages and records for this station are not official NWS values.
T = Trace of Precipitation, MM = Missing Value Source: NWS Daily Summary

Daily Weather History Graph

Daily Weather History Graph

Search for Another Location

Airport or City:

Trip Planner

Search our weather history database for the weather conditions in past years. The results will help you decide how hot, cold, wet, or windy it might be!

Date:

Astronomy

Oct. 31, 2012 Rise Set
Actual Time 7:22 AM EDT 5:42 PM EDT
Civil Twilight 6:53 AM EDT 6:11 PM EDT
Nautical Twilight 6:19 AM EDT 6:44 PM EDT
Astronomical Twilight 5:46 AM EDT 7:17 PM EDT
Moon 6:48 PM EDT (10/31) 9:03 AM EDT (10/31)
Length of Visible Light 11h 18m
Length of Day
10h 19m
Full, 97% of the Moon is Illuminated
Oct 31
Full
Nov 6
Last Quarter
Nov 13
New
Nov 20
First Quarter
Nov 28
Full

Hourly Weather History & Observations

Time (EDT) Temp. Windchill Dew Point Humidity Pressure Visibility Wind Dir Wind Speed Gust Speed Precip Events Conditions
12:15 AM 53.6 °F - 50.0 °F 88% 29.53 in 10.0 mi Calm Calm - N/A   Mostly Cloudy
12:35 AM 53.6 °F - 50.0 °F 88% 29.53 in 10.0 mi Calm Calm - N/A   Mostly Cloudy
12:55 AM 51.8 °F - 50.0 °F 94% 29.52 in 10.0 mi Calm Calm - N/A   Mostly Cloudy
1:15 AM 53.6 °F - 50.0 °F 88% 29.51 in 10.0 mi Calm Calm - N/A   Overcast
1:35 AM 53.6 °F - 50.0 °F 88% 29.50 in 10.0 mi Calm Calm - N/A   Overcast
1:55 AM 51.8 °F - 48.2 °F 88% 29.49 in 10.0 mi Calm Calm - N/A   Partly Cloudy
2:15 AM 51.8 °F - 48.2 °F 88% 29.49 in 10.0 mi Calm Calm - N/A   Mostly Cloudy
2:35 AM 51.8 °F - 48.2 °F 88% 29.48 in 10.0 mi Calm Calm - N/A   Mostly Cloudy
2:55 AM 51.8 °F - 48.2 °F 88% 29.48 in 10.0 mi Calm Calm - N/A   Mostly Cloudy
3:15 AM 51.8 °F - 48.2 °F 88% 29.48 in 10.0 mi Calm Calm - N/A   Overcast
3:35 AM 51.8 °F - 48.2 °F 88% 29.47 in 8.0 mi Calm Calm - N/A   Overcast
3:55 AM 51.8 °F - 48.2 °F 88% 29.46 in 10.0 mi Calm Calm - N/A   Mostly Cloudy
4:15 AM 51.8 °F - 48.2 °F 88% 29.46 in 10.0 mi Calm Calm - N/A   Overcast
4:35 AM 51.8 °F - 48.2 °F 88% 29.46 in 10.0 mi Calm Calm - N/A   Overcast
4:55 AM 51.8 °F - 48.2 °F 88% 29.46 in 10.0 mi Calm Calm - N/A   Mostly Cloudy
5:35 AM 51.8 °F - 48.2 °F 88% 29.45 in 10.0 mi Calm Calm - N/A   Overcast
5:55 AM 51.8 °F - 48.2 °F 88% 29.44 in 10.0 mi Calm Calm - N/A   Overcast
6:15 AM 51.8 °F - 48.2 °F 88% 29.44 in 10.0 mi Calm Calm - N/A   Mostly Cloudy
6:35 AM 53.6 °F - 48.2 °F 82% 29.44 in 10.0 mi Calm Calm - N/A   Overcast
6:55 AM 51.8 °F - 48.2 °F 88% 29.44 in 10.0 mi Calm Calm - N/A   Overcast
7:15 AM 53.6 °F - 50.0 °F 88% 29.45 in 8.0 mi South 3.5 mph - 0.01 in   Overcast
7:35 AM 51.8 °F - 48.2 °F 88% 29.47 in 3.0 mi SSW 11.5 mph 24.2 mph 0.02 in   Overcast
7:55 AM 51.8 °F - 48.2 °F 88% 29.47 in 10.0 mi South 10.4 mph - 0.02 in   Overcast
8:15 AM 51.8 °F - 46.4 °F 82% 29.48 in 10.0 mi SSE 8.1 mph - N/A   Overcast
8:35 AM 51.8 °F - 48.2 °F 88% 29.48 in 8.0 mi South 10.4 mph - N/A   Overcast
8:55 AM 51.8 °F - 46.4 °F 82% 29.49 in 9.0 mi SSW 12.7 mph 19.6 mph N/A   Overcast
9:15 AM 50.0 °F - 44.6 °F 82% 29.50 in 10.0 mi SSW 13.8 mph 18.4 mph N/A   Overcast
9:35 AM 50.0 °F - 44.6 °F 82% 29.50 in 10.0 mi South 12.7 mph - N/A   Mostly Cloudy
9:55 AM 50.0 °F - 44.6 °F 82% 29.50 in 10.0 mi South 11.5 mph - N/A   Mostly Cloudy
10:15 AM 50.0 °F - 44.6 °F 82% 29.50 in 10.0 mi South 8.1 mph - N/A   Mostly Cloudy
10:35 AM 51.8 °F - 44.6 °F 76% 29.50 in 10.0 mi South 6.9 mph - N/A   Scattered Clouds
10:55 AM 51.8 °F - 44.6 °F 76% 29.51 in 10.0 mi South 8.1 mph - N/A   Mostly Cloudy
11:15 AM 51.8 °F - 42.8 °F 71% 29.51 in 10.0 mi South 9.2 mph - N/A   Overcast
11:35 AM 51.8 °F - 41.0 °F 67% 29.51 in 10.0 mi South 11.5 mph 17.3 mph N/A   Mostly Cloudy
11:55 AM 51.8 °F - 41.0 °F 67% 29.51 in 10.0 mi South 12.7 mph - N/A   Mostly Cloudy
12:15 PM 51.8 °F - 39.2 °F 62% 29.51 in 10.0 mi SSW 11.5 mph - N/A   Overcast
12:35 PM 53.6 °F - 39.2 °F 58% 29.50 in 10.0 mi South 11.5 mph - N/A   Overcast
12:55 PM 53.6 °F - 39.2 °F 58% 29.50 in 10.0 mi South 13.8 mph 20.7 mph N/A   Overcast
1:15 PM 53.6 °F - 39.2 °F 58% 29.50 in 10.0 mi South 10.4 mph - N/A   Mostly Cloudy
1:35 PM 53.6 °F - 39.2 °F 58% 29.49 in 10.0 mi SSW 13.8 mph - N/A   Scattered Clouds
1:55 PM 53.6 °F - 39.2 °F 58% 29.49 in 10.0 mi South 9.2 mph - N/A   Mostly Cloudy
2:15 PM 53.6 °F - 39.2 °F 58% 29.49 in 10.0 mi South 13.8 mph 17.3 mph N/A   Overcast
2:35 PM 53.6 °F - 39.2 °F 58% 29.48 in 10.0 mi South 15.0 mph - N/A   Overcast
2:55 PM 51.8 °F - 39.2 °F 62% 29.49 in 10.0 mi South 10.4 mph - N/A   Overcast
3:15 PM 51.8 °F - 39.2 °F 62% 29.49 in 10.0 mi South 10.4 mph 17.3 mph N/A   Overcast
3:35 PM 51.8 °F - 39.2 °F 62% 29.49 in 10.0 mi South 10.4 mph - N/A   Overcast
3:55 PM 51.8 °F - 39.2 °F 62% 29.49 in 10.0 mi South 9.2 mph - N/A   Overcast
4:15 PM 51.8 °F - 39.2 °F 62% 29.49 in 10.0 mi SSW 5.8 mph - N/A   Overcast
4:35 PM 51.8 °F - 37.4 °F 58% 29.50 in 10.0 mi SW 10.4 mph - N/A   Overcast
4:55 PM 51.8 °F - 37.4 °F 58% 29.50 in 10.0 mi SSW 8.1 mph - N/A   Overcast
5:15 PM 50.0 °F - 39.2 °F 66% 29.50 in 10.0 mi South 6.9 mph - N/A   Overcast
5:35 PM 50.0 °F - 37.4 °F 62% 29.50 in 10.0 mi South 9.2 mph - N/A   Overcast
5:55 PM 48.2 °F - 39.2 °F 71% 29.50 in 10.0 mi Calm Calm - N/A   Partly Cloudy
6:15 PM 48.2 °F - 39.2 °F 71% 29.50 in 10.0 mi Calm Calm - N/A   Clear
6:35 PM 48.2 °F - 39.2 °F 71% 29.51 in 10.0 mi Calm Calm - N/A   Clear
6:55 PM 46.4 °F - 39.2 °F 76% 29.52 in 10.0 mi Calm Calm - N/A   Mostly Cloudy
7:15 PM 46.4 °F - 39.2 °F 76% 29.52 in 10.0 mi Calm Calm - N/A   Scattered Clouds
7:35 PM 46.4 °F 45.2 °F 39.2 °F 76% 29.52 in 10.0 mi South 3.5 mph - N/A   Scattered Clouds
7:55 PM 48.2 °F - 39.2 °F 71% 29.52 in 10.0 mi Calm Calm - N/A   Mostly Cloudy
8:15 PM 46.4 °F - 39.2 °F 76% 29.52 in 10.0 mi Calm Calm - N/A   Overcast
8:35 PM 46.4 °F - 39.2 °F 76% 29.52 in 10.0 mi Calm Calm - N/A   Scattered Clouds
8:55 PM 44.6 °F - 39.2 °F 81% 29.52 in 10.0 mi Calm Calm - N/A   Scattered Clouds
9:15 PM 44.6 °F - 39.2 °F 81% 29.52 in 10.0 mi Calm Calm - N/A   Mostly Cloudy
9:35 PM 46.4 °F 43.5 °F 37.4 °F 71% 29.53 in 10.0 mi South 5.8 mph - N/A   Mostly Cloudy
10:15 PM 46.4 °F - 39.2 °F 76% 29.53 in 10.0 mi Calm Calm - N/A   Overcast
10:35 PM - - - N/A% 29.53 in 10.0 mi Calm Calm - N/A   Overcast
10:55 PM 46.4 °F 42.9 °F 37.4 °F 71% 29.53 in 10.0 mi South 6.9 mph - N/A   Overcast
11:15 PM 46.4 °F 42.4 °F 37.4 °F 71% 29.53 in 10.0 mi South 8.1 mph - N/A   Overcast
11:35 PM 46.4 °F 42.4 °F 37.4 °F 71% 29.53 in 10.0 mi South 8.1 mph - N/A   Overcast